Year,Month,Day,Hour,Minute,Value (Times are PST for insolation in W/m^2)
2013,01,31,00,00,0.00
2013,01,31,00,01,0.00
2013,01,31,00,02,0.00
2013,01,31,00,03,0.00
2013,01,31,00,04,0.00
2013,01,31,00,05,0.00
2013,01,31,00,06,0.00
2013,01,31,00,07,0.00
2013,01,31,00,08,0.00
2013,01,31,00,09,0.00
2013,01,31,00,10,0.00
2013,01,31,00,11,0.00
2013,01,31,00,12,0.00
2013,01,31,00,13,0.00
2013,01,31,00,14,0.00
2013,01,31,00,15,0.00
2013,01,31,00,16,0.00
2013,01,31,00,17,0.00
2013,01,31,00,18,0.00
2013,01,31,00,19,0.00
2013,01,31,00,20,0.00
2013,01,31,00,21,0.00
2013,01,31,00,22,0.00
2013,01,31,00,23,0.00
2013,01,31,00,24,0.00
2013,01,31,00,25,0.00
2013,01,31,00,26,0.00
2013,01,31,00,27,0.00
2013,01,31,00,28,0.00
2013,01,31,00,29,0.00
2013,01,31,00,30,0.00
2013,01,31,00,31,0.00
2013,01,31,00,32,0.00
2013,01,31,00,33,0.00
2013,01,31,00,34,0.00
2013,01,31,00,35,0.00
2013,01,31,00,36,0.00
2013,01,31,00,37,0.00
2013,01,31,00,38,0.00
2013,01,31,00,39,0.00
2013,01,31,00,40,0.00
2013,01,31,00,41,0.00
2013,01,31,00,42,0.00
2013,01,31,00,43,0.00
2013,01,31,00,44,0.00
2013,01,31,00,45,0.00
2013,01,31,00,46,0.00
2013,01,31,00,47,0.00
2013,01,31,00,48,0.00
2013,01,31,00,49,0.00
2013,01,31,00,50,0.00
2013,01,31,00,51,0.00
2013,01,31,00,52,0.00
2013,01,31,00,53,0.00
2013,01,31,00,54,0.00
2013,01,31,00,55,0.00
2013,01,31,00,56,0.00
2013,01,31,00,57,0.00
2013,01,31,00,58,0.00
2013,01,31,00,59,0.00
2013,01,31,01,00,0.00
2013,01,31,01,01,0.00
2013,01,31,01,02,0.00
2013,01,31,01,03,0.00
2013,01,31,01,04,0.00
2013,01,31,01,05,0.00
2013,01,31,01,06,0.00
2013,01,31,01,07,0.00
2013,01,31,01,08,0.00
2013,01,31,01,09,0.00
2013,01,31,01,10,0.00
2013,01,31,01,11,0.00
2013,01,31,01,12,0.00
2013,01,31,01,13,0.00
2013,01,31,01,14,0.00
2013,01,31,01,15,0.00
2013,01,31,01,16,0.00
2013,01,31,01,17,0.00
2013,01,31,01,18,0.00
2013,01,31,01,19,0.00
2013,01,31,01,20,0.00
2013,01,31,01,21,0.00
2013,01,31,01,22,0.00
2013,01,31,01,23,0.00
2013,01,31,01,24,0.00
2013,01,31,01,25,0.00
2013,01,31,01,26,0.00
2013,01,31,01,27,0.00
2013,01,31,01,28,0.00
2013,01,31,01,29,0.00
2013,01,31,01,30,0.00
2013,01,31,01,31,0.00
2013,01,31,01,32,0.00
2013,01,31,01,33,0.00
2013,01,31,01,34,0.00
2013,01,31,01,35,0.00
2013,01,31,01,36,0.00
2013,01,31,01,37,0.00
2013,01,31,01,38,0.00
2013,01,31,01,39,0.00
2013,01,31,01,40,0.00
2013,01,31,01,41,0.00
2013,01,31,01,42,0.00
2013,01,31,01,43,0.00
2013,01,31,01,44,0.00
2013,01,31,01,45,0.00
2013,01,31,01,46,0.00
2013,01,31,01,47,0.00
2013,01,31,01,48,0.00
2013,01,31,01,49,0.00
2013,01,31,01,50,0.00
2013,01,31,01,51,0.00
2013,01,31,01,52,0.00
2013,01,31,01,53,0.00
2013,01,31,01,54,0.00
2013,01,31,01,55,0.00
2013,01,31,01,56,0.00
2013,01,31,01,57,0.00
2013,01,31,01,58,0.00
2013,01,31,01,59,0.00
2013,01,31,02,00,0.00
2013,01,31,02,01,0.00
2013,01,31,02,02,0.00
2013,01,31,02,03,0.00
2013,01,31,02,04,0.00
2013,01,31,02,05,0.00
2013,01,31,02,06,0.00
2013,01,31,02,07,0.00
2013,01,31,02,08,0.00
2013,01,31,02,09,0.00
2013,01,31,02,10,0.00
2013,01,31,02,11,0.00
2013,01,31,02,12,0.00
2013,01,31,02,13,0.00
2013,01,31,02,14,0.00
2013,01,31,02,15,0.00
2013,01,31,02,16,0.00
2013,01,31,02,17,0.00
2013,01,31,02,18,0.00
2013,01,31,02,19,0.00
2013,01,31,02,20,0.00
2013,01,31,02,21,0.00
2013,01,31,02,22,0.00
2013,01,31,02,23,0.00
2013,01,31,02,24,0.00
2013,01,31,02,25,0.00
2013,01,31,02,26,0.00
2013,01,31,02,27,0.00
2013,01,31,02,28,0.00
2013,01,31,02,29,0.00
2013,01,31,02,30,0.00
2013,01,31,02,31,0.00
2013,01,31,02,32,0.00
2013,01,31,02,33,0.00
2013,01,31,02,34,0.00
2013,01,31,02,35,0.00
2013,01,31,02,36,0.00
2013,01,31,02,37,0.00
2013,01,31,02,38,0.00
2013,01,31,02,39,0.00
2013,01,31,02,40,0.00
2013,01,31,02,41,0.00
2013,01,31,02,42,0.00
2013,01,31,02,43,0.00
2013,01,31,02,44,0.00
2013,01,31,02,45,0.00
2013,01,31,02,46,0.00
2013,01,31,02,47,0.00
2013,01,31,02,48,0.00
2013,01,31,02,49,0.00
2013,01,31,02,50,0.00
2013,01,31,02,51,0.00
2013,01,31,02,52,0.00
2013,01,31,02,53,0.00
2013,01,31,02,54,0.00
2013,01,31,02,55,0.00
2013,01,31,02,56,0.00
2013,01,31,02,57,0.00
2013,01,31,02,58,0.00
2013,01,31,02,59,0.00
2013,01,31,03,00,0.00
2013,01,31,03,01,0.00
2013,01,31,03,02,0.00
2013,01,31,03,03,0.00
2013,01,31,03,04,0.00
2013,01,31,03,05,0.00
2013,01,31,03,06,0.00
2013,01,31,03,07,0.00
2013,01,31,03,08,0.00
2013,01,31,03,09,0.00
2013,01,31,03,10,0.00
2013,01,31,03,11,0.00
2013,01,31,03,12,0.00
2013,01,31,03,13,0.00
2013,01,31,03,14,0.00
2013,01,31,03,15,0.00
2013,01,31,03,16,0.00
2013,01,31,03,17,0.00
2013,01,31,03,18,0.00
2013,01,31,03,19,0.00
2013,01,31,03,20,0.00
2013,01,31,03,21,0.00
2013,01,31,03,22,0.00
2013,01,31,03,23,0.00
2013,01,31,03,24,0.00
2013,01,31,03,25,0.00
2013,01,31,03,26,0.00
2013,01,31,03,27,0.00
2013,01,31,03,28,0.00
2013,01,31,03,29,0.00
2013,01,31,03,30,0.00
2013,01,31,03,31,0.00
2013,01,31,03,32,0.00
2013,01,31,03,33,0.00
2013,01,31,03,34,0.00
2013,01,31,03,35,0.00
2013,01,31,03,36,0.00
2013,01,31,03,37,0.00
2013,01,31,03,38,0.00
2013,01,31,03,39,0.00
2013,01,31,03,40,0.00
2013,01,31,03,41,0.00
2013,01,31,03,42,0.00
2013,01,31,03,43,0.00
2013,01,31,03,44,0.00
2013,01,31,03,45,0.00
2013,01,31,03,46,0.00
2013,01,31,03,47,0.00
2013,01,31,03,48,0.00
2013,01,31,03,49,0.00
2013,01,31,03,50,0.00
2013,01,31,03,51,0.00
2013,01,31,03,52,0.00
2013,01,31,03,53,0.00
2013,01,31,03,54,0.00
2013,01,31,03,55,0.00
2013,01,31,03,56,0.00
2013,01,31,03,57,0.00
2013,01,31,03,58,0.00
2013,01,31,03,59,0.00
2013,01,31,04,00,0.00
2013,01,31,04,01,0.00
2013,01,31,04,02,0.00
2013,01,31,04,03,0.00
2013,01,31,04,04,0.00
2013,01,31,04,05,0.00
2013,01,31,04,06,0.00
2013,01,31,04,07,0.00
2013,01,31,04,08,0.00
2013,01,31,04,09,0.00
2013,01,31,04,10,0.00
2013,01,31,04,11,0.00
2013,01,31,04,12,0.00
2013,01,31,04,13,0.00
2013,01,31,04,14,0.00
2013,01,31,04,15,0.00
2013,01,31,04,16,0.00
2013,01,31,04,17,0.00
2013,01,31,04,18,0.00
2013,01,31,04,19,0.00
2013,01,31,04,20,0.00
2013,01,31,04,21,0.00
2013,01,31,04,22,0.00
2013,01,31,04,23,0.00
2013,01,31,04,24,0.00
2013,01,31,04,25,0.00
2013,01,31,04,26,0.00
2013,01,31,04,27,0.00
2013,01,31,04,28,0.00
2013,01,31,04,29,0.00
2013,01,31,04,30,0.00
2013,01,31,04,31,0.00
2013,01,31,04,32,0.00
2013,01,31,04,33,0.00
2013,01,31,04,34,0.00
2013,01,31,04,35,0.00
2013,01,31,04,36,0.00
2013,01,31,04,37,0.00
2013,01,31,04,38,0.00
2013,01,31,04,39,0.00
2013,01,31,04,40,0.00
2013,01,31,04,41,0.00
2013,01,31,04,42,0.00
2013,01,31,04,43,0.00
2013,01,31,04,44,0.00
2013,01,31,04,45,0.00
2013,01,31,04,46,0.00
2013,01,31,04,47,0.00
2013,01,31,04,48,0.00
2013,01,31,04,49,0.00
2013,01,31,04,50,0.00
2013,01,31,04,51,0.00
2013,01,31,04,52,0.00
2013,01,31,04,53,0.00
2013,01,31,04,54,0.00
2013,01,31,04,55,0.00
2013,01,31,04,56,0.00
2013,01,31,04,57,0.00
2013,01,31,04,58,0.00
2013,01,31,04,59,0.00
2013,01,31,05,00,0.00
2013,01,31,05,01,0.00
2013,01,31,05,02,0.00
2013,01,31,05,03,0.00
2013,01,31,05,04,0.00
2013,01,31,05,05,0.00
2013,01,31,05,06,0.00
2013,01,31,05,07,0.00
2013,01,31,05,08,0.00
2013,01,31,05,09,0.00
2013,01,31,05,10,0.00
2013,01,31,05,11,0.00
2013,01,31,05,12,0.00
2013,01,31,05,13,0.00
2013,01,31,05,14,0.00
2013,01,31,05,15,0.00
2013,01,31,05,16,0.00
2013,01,31,05,17,0.00
2013,01,31,05,18,0.00
2013,01,31,05,19,0.00
2013,01,31,05,20,0.00
2013,01,31,05,21,0.00
2013,01,31,05,22,0.00
2013,01,31,05,23,0.00
2013,01,31,05,24,0.00
2013,01,31,05,25,0.00
2013,01,31,05,26,0.00
2013,01,31,05,27,0.00
2013,01,31,05,28,0.00
2013,01,31,05,29,0.00
2013,01,31,05,30,0.00
2013,01,31,05,31,0.00
2013,01,31,05,32,0.00
2013,01,31,05,33,0.00
2013,01,31,05,34,0.00
2013,01,31,05,35,0.00
2013,01,31,05,36,0.00
2013,01,31,05,37,0.00
2013,01,31,05,38,0.00
2013,01,31,05,39,0.00
2013,01,31,05,40,0.00
2013,01,31,05,41,0.00
2013,01,31,05,42,0.00
2013,01,31,05,43,0.00
2013,01,31,05,44,0.00
2013,01,31,05,45,0.00
2013,01,31,05,46,0.00
2013,01,31,05,47,0.00
2013,01,31,05,48,0.00
2013,01,31,05,49,0.00
2013,01,31,05,50,0.00
2013,01,31,05,51,0.00
2013,01,31,05,52,0.00
2013,01,31,05,53,0.00
2013,01,31,05,54,0.00
2013,01,31,05,55,0.00
2013,01,31,05,56,0.00
2013,01,31,05,57,0.00
2013,01,31,05,58,0.00
2013,01,31,05,59,0.00
2013,01,31,06,00,0.00
2013,01,31,06,01,0.00
2013,01,31,06,02,0.00
2013,01,31,06,03,0.00
2013,01,31,06,04,0.00
2013,01,31,06,05,0.00
2013,01,31,06,06,0.00
2013,01,31,06,07,0.00
2013,01,31,06,08,0.00
2013,01,31,06,09,0.00
2013,01,31,06,10,0.00
2013,01,31,06,11,0.00
2013,01,31,06,12,0.00
2013,01,31,06,13,0.00
2013,01,31,06,14,0.00
2013,01,31,06,15,0.00
2013,01,31,06,16,0.00
2013,01,31,06,17,0.00
2013,01,31,06,18,0.00
2013,01,31,06,19,0.00
2013,01,31,06,20,0.00
2013,01,31,06,21,0.00
2013,01,31,06,22,0.00
2013,01,31,06,23,0.00
2013,01,31,06,24,0.00
2013,01,31,06,25,0.00
2013,01,31,06,26,0.00
2013,01,31,06,27,0.00
2013,01,31,06,28,0.00
2013,01,31,06,29,0.00
2013,01,31,06,30,0.00
2013,01,31,06,31,0.00
2013,01,31,06,32,0.00
2013,01,31,06,33,0.00
2013,01,31,06,34,0.00
2013,01,31,06,35,0.00
2013,01,31,06,36,0.00
2013,01,31,06,37,0.00
2013,01,31,06,38,0.00
2013,01,31,06,39,0.00
2013,01,31,06,40,0.00
2013,01,31,06,41,0.00
2013,01,31,06,42,0.00
2013,01,31,06,43,0.00
2013,01,31,06,44,0.00
2013,01,31,06,45,0.00
2013,01,31,06,46,0.00
2013,01,31,06,47,0.00
2013,01,31,06,48,0.00
2013,01,31,06,49,0.00
2013,01,31,06,50,0.00
2013,01,31,06,51,0.00
2013,01,31,06,52,0.00
2013,01,31,06,53,0.00
2013,01,31,06,54,0.00
2013,01,31,06,55,0.00
2013,01,31,06,56,0.00
2013,01,31,06,57,0.00
2013,01,31,06,58,0.00
2013,01,31,06,59,0.00
2013,01,31,07,00,0.00
2013,01,31,07,01,0.00
2013,01,31,07,02,0.00
2013,01,31,07,03,0.00
2013,01,31,07,04,0.00
2013,01,31,07,05,0.00
2013,01,31,07,06,0.00
2013,01,31,07,07,0.00
2013,01,31,07,08,0.00
2013,01,31,07,09,0.00
2013,01,31,07,10,0.00
2013,01,31,07,11,0.00
2013,01,31,07,12,0.00
2013,01,31,07,13,0.00
2013,01,31,07,14,0.00
2013,01,31,07,15,0.00
2013,01,31,07,16,0.00
2013,01,31,07,17,0.00
2013,01,31,07,18,0.00
2013,01,31,07,19,0.00
2013,01,31,07,20,0.00
2013,01,31,07,21,0.00
2013,01,31,07,22,0.00
2013,01,31,07,23,0.00
2013,01,31,07,24,0.00
2013,01,31,07,25,0.00
2013,01,31,07,26,0.00
2013,01,31,07,27,0.00
2013,01,31,07,28,0.00
2013,01,31,07,29,0.00
2013,01,31,07,30,0.00
2013,01,31,07,31,0.00
2013,01,31,07,32,0.00
2013,01,31,07,33,0.00
2013,01,31,07,34,0.00
2013,01,31,07,35,0.00
2013,01,31,07,36,0.00
2013,01,31,07,37,0.00
2013,01,31,07,38,0.00
2013,01,31,07,39,0.00
2013,01,31,07,40,0.00
2013,01,31,07,41,0.00
2013,01,31,07,42,0.00
2013,01,31,07,43,0.00
2013,01,31,07,44,0.00
2013,01,31,07,45,0.00
2013,01,31,07,46,0.00
2013,01,31,07,47,0.00
2013,01,31,07,48,0.00
2013,01,31,07,49,0.00
2013,01,31,07,50,0.00
2013,01,31,07,51,0.00
2013,01,31,07,52,0.00
2013,01,31,07,53,0.00
2013,01,31,07,54,0.00
2013,01,31,07,55,0.00
2013,01,31,07,56,0.00
2013,01,31,07,57,0.00
2013,01,31,07,58,0.00
2013,01,31,07,59,0.00
2013,01,31,08,00,0.00
2013,01,31,08,01,0.00
2013,01,31,08,02,0.00
2013,01,31,08,03,0.00
2013,01,31,08,04,0.00
2013,01,31,08,05,0.00
2013,01,31,08,06,0.00
2013,01,31,08,07,0.00
2013,01,31,08,08,0.00
2013,01,31,08,09,0.00
2013,01,31,08,10,0.00
2013,01,31,08,11,0.00
2013,01,31,08,12,0.00
2013,01,31,08,13,0.00
2013,01,31,08,14,0.00
2013,01,31,08,15,0.00
2013,01,31,08,16,0.00
2013,01,31,08,17,0.00
2013,01,31,08,18,0.00
2013,01,31,08,19,0.00
2013,01,31,08,20,0.00
2013,01,31,08,21,0.00
2013,01,31,08,22,0.00
2013,01,31,08,23,0.00
2013,01,31,08,24,0.00
2013,01,31,08,25,0.00
2013,01,31,08,26,0.00
2013,01,31,08,27,0.00
2013,01,31,08,28,0.00
2013,01,31,08,29,0.00
2013,01,31,08,30,0.00
2013,01,31,08,31,0.00
2013,01,31,08,32,0.00
2013,01,31,08,33,0.00
2013,01,31,08,34,0.00
2013,01,31,08,35,5.00
2013,01,31,08,36,5.00
2013,01,31,08,37,5.00
2013,01,31,08,38,5.00
2013,01,31,08,39,5.00
2013,01,31,08,40,5.00
2013,01,31,08,41,5.00
2013,01,31,08,42,5.00
2013,01,31,08,43,6.90
2013,01,31,08,44,7.00
2013,01,31,08,45,7.50
2013,01,31,08,46,9.00
2013,01,31,08,47,9.00
2013,01,31,08,48,9.00
2013,01,31,08,49,9.00
2013,01,31,08,50,9.00
2013,01,31,08,51,9.00
2013,01,31,08,52,11.00
2013,01,31,08,53,11.00
2013,01,31,08,54,11.30
2013,01,31,08,55,12.80
2013,01,31,08,56,14.00
2013,01,31,08,57,14.00
2013,01,31,08,58,14.00
2013,01,31,08,59,14.00
2013,01,31,09,00,14.00
2013,01,31,09,01,16.00
2013,01,31,09,02,16.50
2013,01,31,09,03,18.00
2013,01,31,09,04,18.40
2013,01,31,09,05,19.00
2013,01,31,09,06,20.30
2013,01,31,09,07,21.00
2013,01,31,09,08,21.00
2013,01,31,09,09,21.00
2013,01,31,09,10,21.80
2013,01,31,09,11,25.00
2013,01,31,09,12,25.00
2013,01,31,09,13,25.00
2013,01,31,09,14,23.90
2013,01,31,09,15,21.70
2013,01,31,09,16,21.00
2013,01,31,09,17,21.00
2013,01,31,09,18,19.00
2013,01,31,09,19,18.80
2013,01,31,09,20,17.40
2013,01,31,09,21,15.20
2013,01,31,09,22,14.00
2013,01,31,09,23,16.50
2013,01,31,09,24,18.80
2013,01,31,09,25,19.00
2013,01,31,09,26,19.10
2013,01,31,09,27,21.00
2013,01,31,09,28,21.00
2013,01,31,09,29,21.80
2013,01,31,09,30,22.00
2013,01,31,09,31,21.00
2013,01,31,09,32,21.00
2013,01,31,09,33,21.00
2013,01,31,09,34,21.00
2013,01,31,09,35,21.00
2013,01,31,09,36,21.40
2013,01,31,09,37,23.00
2013,01,31,09,38,23.90
2013,01,31,09,39,25.00
2013,01,31,09,40,25.00
2013,01,31,09,41,25.00
2013,01,31,09,42,23.30
2013,01,31,09,43,21.20
2013,01,31,09,44,21.30
2013,01,31,09,45,24.70
2013,01,31,09,46,31.00
2013,01,31,09,47,37.10
2013,01,31,09,48,41.00
2013,01,31,09,49,43.70
2013,01,31,09,50,40.90
2013,01,31,09,51,35.60
2013,01,31,09,52,43.50
2013,01,31,09,53,41.70
2013,01,31,09,54,39.70
2013,01,31,09,55,36.70
2013,01,31,09,56,31.60
2013,01,31,09,57,28.80
2013,01,31,09,58,24.70
2013,01,31,09,59,19.90
2013,01,31,10,00,19.00
2013,01,31,10,01,19.00
2013,01,31,10,02,20.30
2013,01,31,10,03,25.70
2013,01,31,10,04,25.00
2013,01,31,10,05,26.50
2013,01,31,10,06,29.10
2013,01,31,10,07,30.00
2013,01,31,10,08,30.00
2013,01,31,10,09,30.10
2013,01,31,10,10,33.60
2013,01,31,10,11,37.00
2013,01,31,10,12,37.70
2013,01,31,10,13,39.50
2013,01,31,10,14,40.00
2013,01,31,10,15,39.40
2013,01,31,10,16,39.00
2013,01,31,10,17,39.90
2013,01,31,10,18,40.00
2013,01,31,10,19,40.40
2013,01,31,10,20,42.60
2013,01,31,10,21,45.20
2013,01,31,10,22,48.00
2013,01,31,10,23,51.40
2013,01,31,10,24,53.70
2013,01,31,10,25,54.00
2013,01,31,10,26,53.10
2013,01,31,10,27,53.00
2013,01,31,10,28,53.20
2013,01,31,10,29,55.40
2013,01,31,10,30,58.80
2013,01,31,10,31,60.00
2013,01,31,10,32,60.00
2013,01,31,10,33,62.20
2013,01,31,10,34,66.40
2013,01,31,10,35,72.00
2013,01,31,10,36,76.20
2013,01,31,10,37,76.80
2013,01,31,10,38,76.30
2013,01,31,10,39,79.90
2013,01,31,10,40,90.40
2013,01,31,10,41,93.60
2013,01,31,10,42,90.70
2013,01,31,10,43,88.30
2013,01,31,10,44,87.60
2013,01,31,10,45,82.40
2013,01,31,10,46,76.00
2013,01,31,10,47,73.10
2013,01,31,10,48,72.00
2013,01,31,10,49,76.30
2013,01,31,10,50,89.00
2013,01,31,10,51,117.50
2013,01,31,10,52,87.50
2013,01,31,10,53,81.00
2013,01,31,10,54,99.00
2013,01,31,10,55,121.30
2013,01,31,10,56,135.10
2013,01,31,10,57,145.10
2013,01,31,10,58,122.70
2013,01,31,10,59,102.50
2013,01,31,11,00,135.70
2013,01,31,11,01,194.80
2013,01,31,11,02,149.30
2013,01,31,11,03,166.00
2013,01,31,11,04,212.70
2013,01,31,11,05,197.30
2013,01,31,11,06,162.50
2013,01,31,11,07,158.00
2013,01,31,11,08,291.60
2013,01,31,11,09,312.10
2013,01,31,11,10,404.00
2013,01,31,11,11,377.50
2013,01,31,11,12,259.30
2013,01,31,11,13,246.90
2013,01,31,11,14,191.50
2013,01,31,11,15,133.30
2013,01,31,11,16,98.20
2013,01,31,11,17,110.70
2013,01,31,11,18,110.20
2013,01,31,11,19,85.60
2013,01,31,11,20,63.90
2013,01,31,11,21,55.20
2013,01,31,11,22,56.90
2013,01,31,11,23,63.00
2013,01,31,11,24,62.90
2013,01,31,11,25,62.80
2013,01,31,11,26,70.80
2013,01,31,11,27,93.90
2013,01,31,11,28,100.70
2013,01,31,11,29,93.80
2013,01,31,11,30,89.10
2013,01,31,11,31,83.50
2013,01,31,11,32,81.00
2013,01,31,11,33,81.00
2013,01,31,11,34,77.00
2013,01,31,11,35,76.00
2013,01,31,11,36,76.10
2013,01,31,11,37,77.50
2013,01,31,11,38,78.30
2013,01,31,11,39,76.50
2013,01,31,11,40,76.00
2013,01,31,11,41,74.70
2013,01,31,11,42,72.50
2013,01,31,11,43,73.80
2013,01,31,11,44,73.80
2013,01,31,11,45,71.00
2013,01,31,11,46,66.40
2013,01,31,11,47,66.50
2013,01,31,11,48,70.40
2013,01,31,11,49,74.80
2013,01,31,11,50,81.70
2013,01,31,11,51,81.50
2013,01,31,11,52,82.80
2013,01,31,11,53,86.50
2013,01,31,11,54,93.10
2013,01,31,11,55,106.90
2013,01,31,11,56,121.50
2013,01,31,11,57,126.40
2013,01,31,11,58,121.90
2013,01,31,11,59,120.00
2013,01,31,12,00,118.30
2013,01,31,12,01,120.70
2013,01,31,12,02,121.90
2013,01,31,12,03,129.70
2013,01,31,12,04,138.70
2013,01,31,12,05,147.20
2013,01,31,12,06,151.80
2013,01,31,12,07,151.00
2013,01,31,12,08,159.50
2013,01,31,12,09,162.00
2013,01,31,12,10,153.60
2013,01,31,12,11,142.00
2013,01,31,12,12,146.10
2013,01,31,12,13,160.70
2013,01,31,12,14,171.50
2013,01,31,12,15,185.00
2013,01,31,12,16,186.70
2013,01,31,12,17,183.30
2013,01,31,12,18,183.00
2013,01,31,12,19,169.80
2013,01,31,12,20,155.30
2013,01,31,12,21,151.40
2013,01,31,12,22,152.50
2013,01,31,12,23,163.80
2013,01,31,12,24,171.00
2013,01,31,12,25,155.80
2013,01,31,12,26,133.80
2013,01,31,12,27,124.90
2013,01,31,12,28,120.80
2013,01,31,12,29,118.40
2013,01,31,12,30,111.50
2013,01,31,12,31,105.50
2013,01,31,12,32,105.70
2013,01,31,12,33,113.10
2013,01,31,12,34,125.70
2013,01,31,12,35,147.00
2013,01,31,12,36,154.70
2013,01,31,12,37,153.00
2013,01,31,12,38,155.10
2013,01,31,12,39,165.60
2013,01,31,12,40,182.40
2013,01,31,12,41,195.70
2013,01,31,12,42,204.00
2013,01,31,12,43,208.60
2013,01,31,12,44,200.60
2013,01,31,12,45,205.40
2013,01,31,12,46,216.10
2013,01,31,12,47,225.00
2013,01,31,12,48,297.50
2013,01,31,12,49,378.00
2013,01,31,12,50,378.00
2013,01,31,12,51,379.60
2013,01,31,12,52,304.60
2013,01,31,12,53,239.90
2013,01,31,12,54,253.00
2013,01,31,12,55,253.00
2013,01,31,12,56,253.00
2013,01,31,12,57,259.00
2013,01,31,12,58,265.00
2013,01,31,12,59,467.10
2013,01,31,13,00,548.00
2013,01,31,13,01,307.90
2013,01,31,13,02,342.70
2013,01,31,13,03,342.40
2013,01,31,13,04,267.70
2013,01,31,13,05,269.00
2013,01,31,13,06,372.20
2013,01,31,13,07,466.00
2013,01,31,13,08,307.10
2013,01,31,13,09,212.40
2013,01,31,13,10,228.90
2013,01,31,13,11,230.00
2013,01,31,13,12,228.00
2013,01,31,13,13,223.00
2013,01,31,13,14,378.50
2013,01,31,13,15,500.60
2013,01,31,13,16,486.80
2013,01,31,13,17,490.00
2013,01,31,13,18,257.30
2013,01,31,13,19,330.00
2013,01,31,13,20,375.70
2013,01,31,13,21,532.00
2013,01,31,13,22,508.20
2013,01,31,13,23,507.00
2013,01,31,13,24,540.60
2013,01,31,13,25,551.70
2013,01,31,13,26,493.60
2013,01,31,13,27,493.00
2013,01,31,13,28,563.10
2013,01,31,13,29,570.80
2013,01,31,13,30,597.70
2013,01,31,13,31,602.10
2013,01,31,13,32,587.90
2013,01,31,13,33,574.00
2013,01,31,13,34,568.00
2013,01,31,13,35,289.90
2013,01,31,13,36,246.00
2013,01,31,13,37,246.00
2013,01,31,13,38,315.00
2013,01,31,13,39,499.00
2013,01,31,13,40,411.50
2013,01,31,13,41,392.50
2013,01,31,13,42,427.00
2013,01,31,13,43,427.00
2013,01,31,13,44,477.40
2013,01,31,13,45,449.90
2013,01,31,13,46,268.50
2013,01,31,13,47,267.00
2013,01,31,13,48,216.00
2013,01,31,13,49,150.70
2013,01,31,13,50,184.30
2013,01,31,13,51,153.50
2013,01,31,13,52,140.70
2013,01,31,13,53,138.50
2013,01,31,13,54,131.60
2013,01,31,13,55,131.20
2013,01,31,13,56,134.60
2013,01,31,13,57,126.70
2013,01,31,13,58,116.50
2013,01,31,13,59,124.90
2013,01,31,14,00,139.30
2013,01,31,14,01,147.40
2013,01,31,14,02,136.90
2013,01,31,14,03,158.60
2013,01,31,14,04,171.60
2013,01,31,14,05,186.40
2013,01,31,14,06,205.00
2013,01,31,14,07,273.30
2013,01,31,14,08,314.80
2013,01,31,14,09,320.00
2013,01,31,14,10,122.30
2013,01,31,14,11,102.50
2013,01,31,14,12,107.80
2013,01,31,14,13,119.40
2013,01,31,14,14,129.50
2013,01,31,14,15,138.40
2013,01,31,14,16,146.50
2013,01,31,14,17,153.70
2013,01,31,14,18,155.00
2013,01,31,14,19,156.70
2013,01,31,14,20,161.40
2013,01,31,14,21,151.10
2013,01,31,14,22,134.30
2013,01,31,14,23,123.80
2013,01,31,14,24,124.20
2013,01,31,14,25,137.90
2013,01,31,14,26,151.00
2013,01,31,14,27,151.30
2013,01,31,14,28,153.40
2013,01,31,14,29,157.40
2013,01,31,14,30,159.60
2013,01,31,14,31,150.90
2013,01,31,14,32,143.20
2013,01,31,14,33,138.40
2013,01,31,14,34,137.00
2013,01,31,14,35,140.40
2013,01,31,14,36,138.70
2013,01,31,14,37,129.50
2013,01,31,14,38,124.90
2013,01,31,14,39,115.80
2013,01,31,14,40,103.50
2013,01,31,14,41,96.10
2013,01,31,14,42,95.00
2013,01,31,14,43,96.60
2013,01,31,14,44,103.40
2013,01,31,14,45,114.80
2013,01,31,14,46,124.10
2013,01,31,14,47,129.30
2013,01,31,14,48,131.20
2013,01,31,14,49,124.80
2013,01,31,14,50,114.30
2013,01,31,14,51,102.90
2013,01,31,14,52,92.30
2013,01,31,14,53,86.20
2013,01,31,14,54,86.60
2013,01,31,14,55,90.70
2013,01,31,14,56,94.90
2013,01,31,14,57,102.30
2013,01,31,14,58,114.40
2013,01,31,14,59,130.00
2013,01,31,15,00,143.10
2013,01,31,15,01,153.80
2013,01,31,15,02,163.30
2013,01,31,15,03,168.60
2013,01,31,15,04,164.80
2013,01,31,15,05,155.10
2013,01,31,15,06,147.00
2013,01,31,15,07,149.00
2013,01,31,15,08,152.40
2013,01,31,15,09,149.80
2013,01,31,15,10,146.00
2013,01,31,15,11,140.40
2013,01,31,15,12,149.80
2013,01,31,15,13,153.00
2013,01,31,15,14,157.10
2013,01,31,15,15,163.70
2013,01,31,15,16,167.50
2013,01,31,15,17,167.50
2013,01,31,15,18,163.60
2013,01,31,15,19,162.50
2013,01,31,15,20,156.30
2013,01,31,15,21,147.60
2013,01,31,15,22,145.60
2013,01,31,15,23,151.50
2013,01,31,15,24,155.60
2013,01,31,15,25,166.90
2013,01,31,15,26,179.40
2013,01,31,15,27,182.80
2013,01,31,15,28,169.80
2013,01,31,15,29,145.60
2013,01,31,15,30,130.00
2013,01,31,15,31,120.00
2013,01,31,15,32,120.00
2013,01,31,15,33,117.50
2013,01,31,15,34,118.90
2013,01,31,15,35,126.60
2013,01,31,15,36,136.50
2013,01,31,15,37,131.70
2013,01,31,15,38,107.30
2013,01,31,15,39,88.30
2013,01,31,15,40,80.30
2013,01,31,15,41,77.00
2013,01,31,15,42,76.30
2013,01,31,15,43,78.40
2013,01,31,15,44,80.70
2013,01,31,15,45,79.00
2013,01,31,15,46,79.70
2013,01,31,15,47,84.40
2013,01,31,15,48,89.10
2013,01,31,15,49,91.00
2013,01,31,15,50,86.70
2013,01,31,15,51,80.20
2013,01,31,15,52,76.50
2013,01,31,15,53,72.20
2013,01,31,15,54,68.50
2013,01,31,15,55,64.30
2013,01,31,15,56,60.70
2013,01,31,15,57,56.20
2013,01,31,15,58,53.40
2013,01,31,15,59,50.50
2013,01,31,16,00,49.00
2013,01,31,16,01,49.00
2013,01,31,16,02,50.70
2013,01,31,16,03,47.00
2013,01,31,16,04,47.00
2013,01,31,16,05,47.70
2013,01,31,16,06,50.90
2013,01,31,16,07,53.00
2013,01,31,16,08,48.00
2013,01,31,16,09,42.70
2013,01,31,16,10,39.30
2013,01,31,16,11,34.70
2013,01,31,16,12,31.10
2013,01,31,16,13,28.00
2013,01,31,16,14,28.00
2013,01,31,16,15,29.10
2013,01,31,16,16,31.30
2013,01,31,16,17,32.80
2013,01,31,16,18,34.60
2013,01,31,16,19,32.70
2013,01,31,16,20,24.00
2013,01,31,16,21,17.50
2013,01,31,16,22,16.00
2013,01,31,16,23,15.00
2013,01,31,16,24,14.00
2013,01,31,16,25,15.40
2013,01,31,16,26,17.50
2013,01,31,16,27,18.90
2013,01,31,16,28,13.80
2013,01,31,16,29,11.80
2013,01,31,16,30,10.50
2013,01,31,16,31,9.00
2013,01,31,16,32,9.00
2013,01,31,16,33,9.00
2013,01,31,16,34,7.60
2013,01,31,16,35,7.00
2013,01,31,16,36,7.00
2013,01,31,16,37,7.30
2013,01,31,16,38,8.50
2013,01,31,16,39,7.00
2013,01,31,16,40,7.00
2013,01,31,16,41,7.00
2013,01,31,16,42,7.00
2013,01,31,16,43,7.00
2013,01,31,16,44,7.00
2013,01,31,16,45,7.00
2013,01,31,16,46,7.00
2013,01,31,16,47,7.00
2013,01,31,16,48,6.30
2013,01,31,16,49,5.00
2013,01,31,16,50,5.00
2013,01,31,16,51,5.00
2013,01,31,16,52,5.00
2013,01,31,16,53,5.00
2013,01,31,16,54,5.00
2013,01,31,16,55,5.00
2013,01,31,16,56,3.60
2013,01,31,16,57,0.00
2013,01,31,16,58,0.00
2013,01,31,16,59,0.00
2013,01,31,17,00,0.00
2013,01,31,17,01,0.00
2013,01,31,17,02,0.00
2013,01,31,17,03,0.00
2013,01,31,17,04,0.00
2013,01,31,17,05,0.00
2013,01,31,17,06,0.00
2013,01,31,17,07,0.00
2013,01,31,17,08,0.00
2013,01,31,17,09,0.00
2013,01,31,17,10,0.00
2013,01,31,17,11,0.00
2013,01,31,17,12,0.00
2013,01,31,17,13,0.00
2013,01,31,17,14,0.00
2013,01,31,17,15,0.00
2013,01,31,17,16,0.00
2013,01,31,17,17,0.00
2013,01,31,17,18,0.00
2013,01,31,17,19,0.00
2013,01,31,17,20,0.00
2013,01,31,17,21,0.00
2013,01,31,17,22,0.00
2013,01,31,17,23,0.00
2013,01,31,17,24,0.00
2013,01,31,17,25,0.00
2013,01,31,17,26,0.00
2013,01,31,17,27,0.00
2013,01,31,17,28,0.00
2013,01,31,17,29,0.00
2013,01,31,17,30,0.00
2013,01,31,17,31,0.00
2013,01,31,17,32,0.00
2013,01,31,17,33,0.00
2013,01,31,17,34,0.00